London, United Kingdom

3:15 AM BST on July 24, 2016 (GMT +0100)
Heathrow

Weather History for EGLL - February, 2013

Change the Weather History Date:

Saturday, February 23, 2013

  Actual Average Record
Temperature  
Mean Temperature 34 °F -  
Max Temperature 36 °F 49 °F 62 °F (2012)
Min Temperature 32 °F 37 °F 30 °F (2004)
Degree Days  
Heating Degree Days 31    
Moisture  
Dew Point 25 °F    
Average Humidity 69    
Maximum Humidity 87    
Minimum Humidity 41    
Precipitation  
Precipitation 0.00 in - - ()
Sea Level Pressure  
Sea Level Pressure 30.15 in    
Wind  
Wind Speed 7 mph ()    
Max Wind Speed 12 mph    
Max Gust Speed -    
Visibility 6.2 miles    
Events Rain , Snow    
Averages and records for this station are not official NWS values.
T = Trace of Precipitation, MM = Missing Value Source: Averaged Metar Reports

Daily Weather History Graph

Daily Weather History Graph

Search for Another Location

Airport or City:

Trip Planner

Search our weather history database for the weather conditions in past years. The results will help you decide how hot, cold, wet, or windy it might be!

Date:

Astronomy

Feb. 23, 2013 Rise Set
Actual Time 6:59 AM GMT 5:31 PM GMT
Civil Twilight 6:25 AM GMT 6:05 PM GMT
Nautical Twilight 5:47 AM GMT 6:44 PM GMT
Astronomical Twilight 5:08 AM GMT 7:22 PM GMT
Moon 3:18 PM GMT (2/23) 5:23 AM GMT (2/23)
Length of Visible Light 11h 39m
Length of Day
10h 32m
Waxing Gibbous, 94% of the Moon is Illuminated
Feb 23
Waxing Gibbous
Feb 25
Full
Mar 4
Last Quarter
Mar 11
New
Mar 19
First Quarter

Hourly Weather History & Observations

Time (GMT) Temp. Windchill Dew Point Humidity Pressure Visibility Wind Dir Wind Speed Gust Speed Precip Events Conditions
12:20 AM 33.8 °F 27.7 °F 24.8 °F 70% 30.12 in 6.2 mi NE 6.9 mph - N/A Snow Light Snow
12:50 AM 33.8 °F 27.0 °F 24.8 °F 70% 30.09 in 6.2 mi NNE 8.1 mph - N/A Snow Light Snow
1:20 AM 32.0 °F 24.8 °F 24.8 °F 75% 30.09 in 6.2 mi NNE 8.1 mph - N/A Snow Light Snow
1:50 AM 32.0 °F 24.2 °F 24.8 °F 75% 30.09 in 6.2 mi NNE 9.2 mph - N/A Snow Light Snow
2:20 AM 32.0 °F 24.8 °F 24.8 °F 75% 30.09 in 6.2 mi NNE 8.1 mph - N/A Snow Light Snow
2:50 AM 33 °F - 25 °F 61% 30.11 in 14 mi NNE 10.4 mph - - Snow Snow
2:50 AM 32.0 °F 24.8 °F 24.8 °F 75% 30.09 in 6.2 mi NE 8.1 mph - N/A Snow Light Snow
3:20 AM 32.0 °F 24.8 °F 24.8 °F 75% 30.09 in 6.2 mi NE 8.1 mph - N/A   Mostly Cloudy
3:50 AM 32.0 °F 24.8 °F 24.8 °F 75% 30.09 in 6.2 mi NNE 8.1 mph - N/A   Overcast
4:20 AM 32.0 °F 24.8 °F 24.8 °F 75% 30.09 in 6.2 mi NNE 8.1 mph - N/A   Overcast
4:50 AM 32.0 °F 24.8 °F 24.8 °F 75% 30.12 in 6.2 mi NNE 8.1 mph - N/A   Overcast
5:20 AM 32.0 °F 24.8 °F 24.8 °F 75% 30.12 in 6.2 mi NNE 8.1 mph - N/A   Overcast
5:50 AM 32 °F - 26 °F 68% 30.13 in 16 mi NNE 8.1 mph - -  
5:50 AM 32.0 °F 26.4 °F 24.8 °F 75% 30.12 in 6.2 mi NNE 5.8 mph - N/A   Mostly Cloudy
6:20 AM 32.0 °F 25.6 °F 24.8 °F 75% 30.12 in 6.2 mi NNE 6.9 mph - N/A   Mostly Cloudy
6:50 AM 32.0 °F 25.6 °F 24.8 °F 75% 30.12 in 6.2 mi NNE 6.9 mph - N/A   Mostly Cloudy
7:20 AM 32.0 °F 26.4 °F 24.8 °F 75% 30.12 in 6.2 mi North 5.8 mph - N/A   Mostly Cloudy
7:50 AM 32.0 °F 26.4 °F 24.8 °F 75% 30.12 in 6.2 mi North 5.8 mph - N/A   Mostly Cloudy
8:20 AM 32.0 °F 26.4 °F 26.6 °F 80% 30.12 in 6.2 mi NNE 5.8 mph - N/A   Mostly Cloudy
8:50 AM 33 °F - 26 °F 67% 30.15 in 10 mi NNE 9.2 mph - - Rain Light Rain Showers
8:50 AM 33.8 °F 27.0 °F 26.6 °F 75% 30.15 in 6.2 mi NNE 8.1 mph - N/A Snow Light Snow Showers
9:20 AM 33.8 °F 27.7 °F 26.6 °F 75% 30.15 in 6.2 mi NNE 6.9 mph - N/A   Partly Cloudy
9:50 AM 33.8 °F 27.7 °F 26.6 °F 75% 30.15 in 6.2 mi NE 6.9 mph - N/A   Scattered Clouds
10:20 AM 33.8 °F 27.0 °F 26.6 °F 75% 30.15 in 5.6 mi NE 8.1 mph - N/A Snow Light Snow Showers
10:50 AM 33.8 °F 26.4 °F 28.4 °F 81% 30.15 in 5.6 mi NNE 9.2 mph - N/A Snow Light Snow Showers
11:20 AM 35.6 °F 29.9 °F 26.6 °F 70% 30.15 in 5.6 mi NE 6.9 mph - N/A Snow Light Snow Showers
11:50 AM 35 °F - 28 °F 66% 30.17 in 3 mi NNE 9.2 mph - - Snow Light Snow
11:50 AM 35.6 °F 29.2 °F 28.4 °F 75% 30.15 in 5.0 mi NE 8.1 mph - N/A Snow Light Snow Showers
12:20 PM 35.6 °F 28.6 °F 26.6 °F 70% 30.15 in 5.6 mi ENE 9.2 mph - N/A Snow Light Snow Showers
12:50 PM 35.6 °F 27.5 °F 26.6 °F 70% 30.15 in 6.2 mi NE 11.5 mph - N/A   Mostly Cloudy
1:20 PM 35.6 °F 29.2 °F 24.8 °F 65% 30.15 in 6.2 mi NE 8.1 mph - N/A   Mostly Cloudy
1:50 PM 35.6 °F 27.5 °F 23.0 °F 60% 30.15 in 6.2 mi ENE 11.5 mph - N/A   Mostly Cloudy
2:20 PM 35.6 °F 28.0 °F 21.2 °F 56% 30.15 in 6.2 mi NE 10.4 mph - N/A   Mostly Cloudy
2:50 PM 35 °F - 21 °F 44% 30.16 in 7 mi NE 8.1 mph - -   Mostly Cloudy
2:50 PM 35.6 °F 28.6 °F 21.2 °F 56% 30.15 in 6.2 mi ENE 9.2 mph - N/A   Mostly Cloudy
3:20 PM 35.6 °F 28.6 °F 21.2 °F 56% 30.15 in 6.2 mi ENE 9.2 mph - N/A   Mostly Cloudy
3:50 PM 35.6 °F 29.9 °F 21.2 °F 56% 30.15 in 6.2 mi NE 6.9 mph - N/A   Mostly Cloudy
4:20 PM 33.8 °F 27.0 °F 23.0 °F 65% 30.15 in 6.2 mi ENE 8.1 mph - N/A   Mostly Cloudy
4:50 PM 35.6 °F 28.6 °F 23.0 °F 60% 30.15 in 5.6 mi NE 9.2 mph - N/A   Mostly Cloudy
5:20 PM 33.8 °F 27.7 °F 23.0 °F 65% 30.15 in 5.6 mi NE 6.9 mph - N/A   Mostly Cloudy
5:50 PM 34 °F - 24 °F 56% 30.19 in 6 mi NNE 6.9 mph - -   Mostly Cloudy
5:50 PM 33.8 °F 28.6 °F 23.0 °F 65% 30.18 in 5.0 mi NE 5.8 mph - N/A   Unknown
6:20 PM 33.8 °F 28.6 °F 23.0 °F 65% 30.18 in 5.6 mi NE 5.8 mph - N/A   Mostly Cloudy
6:50 PM 33.8 °F 26.4 °F 23.0 °F 65% 30.18 in 5.6 mi ENE 9.2 mph - N/A   Mostly Cloudy
7:20 PM 33.8 °F 27.0 °F 23.0 °F 65% 30.18 in 5.6 mi NE 8.1 mph - N/A   Mostly Cloudy
7:50 PM 33.8 °F 27.7 °F 23.0 °F 65% 30.18 in 6.2 mi NE 6.9 mph - N/A   Mostly Cloudy
8:20 PM 33.8 °F 27.0 °F 21.2 °F 60% 30.18 in 6.2 mi NNE 8.1 mph - N/A   Mostly Cloudy
8:50 PM 35 °F - 20 °F 41% 30.20 in 11 mi NNE 8.1 mph - -   Overcast
8:50 PM 33.8 °F 28.6 °F 19.4 °F 56% 30.18 in 6.2 mi NE 5.8 mph - N/A   Mostly Cloudy
9:20 PM 33.8 °F 29.6 °F 21.2 °F 60% 30.21 in 6.2 mi North 4.6 mph - N/A   Mostly Cloudy
9:50 PM 32.0 °F 26.4 °F 24.8 °F 75% 30.21 in 5.6 mi North 5.8 mph - N/A   Unknown
10:20 PM 32.0 °F 26.4 °F 26.6 °F 80% 30.21 in 4.3 mi North 5.8 mph - N/A   Mostly Cloudy
10:50 PM 32.0 °F 26.4 °F 28.4 °F 87% 30.21 in 3.7 mi North 5.8 mph - N/A   Mostly Cloudy
11:20 PM 32.0 °F 26.4 °F 28.4 °F 87% 30.21 in 3.1 mi North 5.8 mph - N/A   Haze
11:50 PM 33 °F - 28 °F 76% 30.23 in 4 mi NNW 6.9 mph - -   Light Haze
11:50 PM 32.0 °F 26.4 °F 28.4 °F 87% 30.21 in 3.1 mi North 5.8 mph - N/A   Haze